RH
94 95 90 90 92 95 95 96 96 94 87 81 83 88 87 90 80 80 70 67 73 73 75 73 69 64 68 65 68 69 79 84 87 78 74 70 71 75 74 72 73 79 77
76 86 86 85 81 85 94 94 93 96 91 83 83 82 85 88 87 86 84 78 74 76 78 82 78 79 77 76 76 77 80 80 84 90 85 83 81 78 77 78 80 86 82
63 84 87 85 84 83 85 84 86 92 91 92 91 89 80 84 84 89 83 79 76 77 74 80 78 78 77 76 77 83 85 88 91 94 87 83 86 87 88 90 97 92 92
56 75 85 86 86 87 88 86 83 84 89 90 92 90 90 86 86 84 85 83 79 77 76 76 77 81 78 78 79 84 90 95 99 100 97 96 98 99 100 100 100 100 99
60 57 68 76 80 84 86 86 87 90 89 89 90 91 89 94 93 93 89 88 87 83 78 77 78 79 78 78 84 84 91 99 99 100 99 100 100 99 98 97 100 100 100
63 60 58 60 69 73 75 78 82 86 88 88 91 90 92 90 90 91 90 89 87 85 82 79 78 77 76 74 74 72 85 96 95 95 92 96 98 98 98 100 100 100 100
63 68 63 61 64 69 73 77 77 78 81 87 89 88 90 90 87 89 88 88 86 84 83 81 81 82 79 76 77 78 83 96 97 96 98 95 98 97 99 100 100 98 98
87 88 85 75 68 67 71 75 77 78 79 81 82 85 87 86 85 81 80 82 84 84 83 84 83 80 78 80 85 98 100 100 100 100 100 100 100 100 100 98 97 97 100
92 95 94 95 88 80 72 71 72 77 79 81 81 82 83 84 83 82 79 76 82 83 82 81 81 80 79 85 94 100 100 100 100 100 100 100 100 100 100 99 100 97 98
92 94 96 100 100 97 92 74 72 75 77 79 80 82 82 82 83 80 78 81 90 90 92 94 94 94 97 99 100 100 100 100 100 100 100 99 98 99 99 98 98 97 97
95 95 98 100 100 100 100 98 76 76 78 79 82 86 87 86 85 82 82 81 83 95 100 100 100 100 100 100 100 100 99 99 99 98 98 96 71 47 46 50 48 49 63
97 97 99 100 99 100 100 100 100 92 80 92 98 100 100 100 100 100 97 95 97 100 100 100 100 100 100 100 99 100 100 99 99 99 98 98 92 87 80 72 81 85 86
98 98 100 100 99 98 98 100 100 100 100 100 100 100 100 100 100 100 100 100 100 99 99 99 99 100 100 99 98 97 96 97 98 97 98 96 95 95 96 95 95 89 79
100 100 100 100 99 100 95 100 100 100 100 100 100 99 100 100 100 100 100 100 100 99 100 100 98 95 93 95 96 97 96 96 96 96 96 97 96 95 95 94 89 84 78
100 100 100 100 98 98 100 100 100 100 100 100 100 100 97 100 100 98 95 100 97 98 96 96 96 97 98 97 97 96 96 96 95 96 96 96 96 96 95 88 80 78 85
100 100 100 100 99 97 93 98 100 100 95 98 97 100 100 99 100 100 96 96 97 97 97 97 97 96 96 97 97 96 96 95 96 96 95 95 95 91 88 80 76 86 92
100 100 100 100 98 97 96 93 92 100 97 100 98 96 97 98 98 99 98 97 97 94 96 96 96 97 97 97 97 96 97 95 95 92 83 79 81 90 89 90 86 87 89
99 100 100 100 99 98 97 98 97 95 95 96 98 99 96 97 96 97 97 94 96 96 97 97 97 97 98 97 96 96 95 85 86 97 96 88 78 77 85 92 86 81 83
100 100 100 99 97 97 99 99 99 98 97 98 96 95 97 97 99 99 99 98 98 98 98 97 96 96 97 96 96 95 93 90 86 82 78 80 80 75 81 80 76 78 82
99 100 99 100 98 98 98 98 96 96 97 98 98 99 96 92 95 97 97 98 98 97 98 99 99 96 96 90 85 85 85 82 81 84 88 87 81 76 86 87 89 92 90
97 98 97 99 100 100 100 100 100 98 97 97 98 96 95 96 97 97 97 96 97 99 99 96 92 90 88 87 86 83 84 90 91 92 87 81 78 82 85 90 88 85 90
99 99 99 100 99 98 98 97 97 97 97 97 98 97 96 98 100 100 91 89 94 96 94 90 90 90 91 90 92 92 96 96 93 88 81 80 82 90 94 86 88 87 81
86 90 97 100 100 100 100 100 100 100 100 100 99 92 89 90 95 99 100 100 87 85 90 83 86 81 85 94 96 94 92 96 98 94 88 82 81 94 96 92 84 82 88
94 97 96 90 90 93 96 98 100 100 100 100 100 100 100 97 92 86 91 99 94 95 99 95 88 84 84 79 80 89 92 90 83 76 77 86 89 86 84 82 92 100 99
90 93 95 98 100 96 94 97 98 98 99 100 98 97 100 99 100 96 91 82 96 100 100 100 98 93 89 93 93 96 94 87 71 69 74 84 88 89 97 100 100 84 82
82 86 86 89 90 87 91 96 100 92 91 99 100 97 90 100 100 99 88 83 100 100 100 100 100 100 100 100 100 98 92 91 91 94 89 89 91 93 96 93 89 93 96
Wind_Speed
34 34 33 32 32 30 33 36 35 34 39 40 40 41 41 40 44 43 41 40 39 38 37 37 40 40 36 35 36 36 32 28 20 29 32 35 33 32 31 33 34 34 32
35 35 35 34 35 32 31 35 36 35 39 44 41 39 41 41 42 42 41 39 38 38 38 36 39 36 34 34 35 35 34 34 31 27 34 34 35 38 38 37 35 36 35
32 38 35 35 36 38 36 34 31 36 35 39 41 41 40 41 42 42 43 41 41 41 40 38 41 37 38 36 36 34 35 36 34 33 32 33 36 37 36 35 39 40 39
33 33 34 36 37 36 36 37 39 38 38 37 41 42 42 43 44 44 42 43 43 43 42 43 42 39 43 39 39 37 38 34 30 30 28 24 27 33 32 25 28 34 32
31 31 34 35 36 34 37 38 38 39 40 40 39 40 40 41 45 44 44 43 44 44 44 44 45 46 46 44 37 38 34 34 29 24 24 22 19 19 22 29 29 25 26
27 33 30 35 37 39 39 36 36 38 40 38 41 42 41 43 45 46 44 42 42 42 43 43 44 46 49 49 48 48 42 36 31 27 30 27 27 26 25 23 19 11 5
16 20 25 29 34 38 36 34 38 39 36 38 38 38 40 43 44 47 50 45 40 41 41 40 40 42 45 47 46 47 45 41 42 37 32 33 27 31 29 23 23 19 10
23 22 25 17 27 31 32 36 38 37 37 37 38 37 36 40 42 47 45 50 43 40 42 42 42 45 45 43 38 31 24 23 26 28 28 27 20 22 25 25 23 18 13
22 24 23 26 26 22 30 36 38 34 34 36 36 36 37 39 39 41 44 47 43 40 40 42 44 44 41 40 34 25 15 9 8 9 12 16 17 17 19 23 18 18 5
26 24 22 25 27 25 21 31 34 34 35 33 32 34 39 40 37 40 42 43 36 36 35 30 33 35 35 36 35 31 27 26 28 28 27 26 23 19 16 14 12 10 7
26 23 21 22 23 25 29 22 28 31 31 30 31 28 28 31 36 38 38 38 41 36 30 22 19 16 21 23 23 29 33 34 28 27 25 23 22 20 17 16 13 8 6
24 23 21 21 23 25 27 24 20 16 31 25 23 15 11 11 12 15 26 31 31 28 17 19 21 22 23 23 24 31 32 31 30 26 26 22 22 18 16 11 8 6 4
22 22 24 21 25 25 29 30 25 22 8 8 13 15 14 14 14 11 9 15 22 30 34 38 39 39 37 35 33 31 29 26 25 23 21 21 16 11 6 6 5 5 3
19 20 22 23 24 30 31 30 27 25 17 14 14 15 20 22 24 26 31 39 40 43 35 32 40 42 39 34 29 28 27 26 23 23 19 16 16 14 11 7 6 5 4
16 18 19 21 22 25 37 34 32 35 20 16 16 17 17 23 24 27 34 25 40 36 39 34 28 26 28 29 26 26 24 21 23 20 18 16 13 11 11 8 8 8 7
14 17 19 19 20 21 23 34 46 47 45 39 38 30 33 30 34 38 40 37 32 34 32 28 21 22 20 21 23 23 23 19 18 17 16 13 12 10 9 9 9 9 8
19 19 19 21 19 18 20 21 25 38 47 41 41 43 31 31 24 35 36 36 32 34 29 25 22 22 24 23 20 21 19 18 15 15 12 12 10 10 10 10 10 11 9
23 25 24 24 22 22 21 21 22 24 27 27 36 36 37 29 31 28 32 38 34 30 26 25 22 23 22 23 21 18 17 15 14 14 14 12 11 11 12 11 12 14 14
24 25 25 26 26 22 19 22 21 23 23 23 24 30 29 34 30 31 27 30 27 26 26 26 24 23 22 21 20 18 17 17 15 13 12 12 11 10 11 11 12 12 13
29 26 25 24 24 23 22 24 23 25 25 23 23 23 26 32 31 27 28 29 27 25 23 22 21 21 19 18 17 16 15 13 12 12 11 10 9 9 10 10 11 13 13
26 26 25 25 23 22 23 24 23 23 22 23 24 26 26 26 23 23 23 25 24 23 22 19 19 18 16 15 14 14 13 11 10 9 7 7 7 8 8 8 9 11 13
24 24 24 23 22 23 23 23 22 21 20 19 21 22 22 24 21 20 21 20 20 19 17 15 16 15 13 12 10 10 9 9 7 5 4 4 5 6 7 7 9 11 13
25 25 23 20 19 21 22 21 20 19 19 19 19 20 20 20 20 20 20 17 17 15 13 12 11 10 8 8 6 5 5 6 5 5 5 4 2 3 5 7 9 11 14
24 22 21 22 23 23 23 22 22 21 21 21 21 20 18 17 17 16 15 15 16 14 12 11 10 10 8 5 2 3 4 6 7 7 6 5 5 4 4 6 10 13 12
22 23 23 22 21 22 23 22 22 21 21 20 18 18 17 14 13 13 12 10 10 12 10 7 8 9 7 5 7 7 8 9 9 4 3 4 3 2 4 8 10 12 13
20 21 21 20 20 19 18 19 19 16 15 17 15 13 11 12 10 9 9 7 7 6 5 5 6 5 6 6 6 9 9 6 5 4 2 1 3 4 6 9 10 13 16
Wind_Direction
192 197 198 200 203 205 206 210 208 209 212 214 216 214 213 215 219 220 222 222 224 226 227 230 234 238 240 248 250 249 246 237 237 258 261 260 251 249 253 255 251 248 247
197 197 203 206 211 211 207 209 211 212 216 220 216 217 217 217 218 218 218 220 222 223 224 226 231 234 235 241 246 245 245 243 237 248 255 252 245 248 253 247 244 246 243
197 196 201 205 208 213 216 214 210 211 214 217 219 217 217 218 220 220 221 223 225 227 228 228 232 231 234 236 240 244 246 246 239 241 248 253 250 245 241 242 239 236 242
201 193 197 203 208 211 215 218 220 218 216 215 215 218 220 220 221 223 224 226 229 231 230 229 233 232 234 234 236 236 239 237 239 241 247 249 240 243 245 239 237 240 236
205 208 205 203 205 208 211 214 216 217 219 219 219 219 220 220 222 222 223 225 226 230 231 231 233 234 235 236 231 239 238 234 236 236 244 240 211 212 222 238 231 231 223
211 216 217 214 209 212 214 213 213 217 219 219 219 220 220 223 224 223 221 222 225 228 231 233 234 237 240 243 242 246 239 234 234 235 243 238 230 229 239 224 205 166 175
4 260 233 222 214 214 214 213 218 220 219 220 222 221 222 224 227 226 225 222 224 226 229 231 232 234 238 242 240 241 244 244 242 241 240 241 238 228 216 197 190 183 158
7 1 358 298 237 221 212 214 221 222 220 221 224 225 227 230 229 229 229 227 227 230 231 233 232 237 238 235 234 235 236 240 244 249 253 250 233 209 197 193 169 150 138
4 355 352 350 323 302 217 218 222 220 221 221 223 225 227 232 233 232 230 232 229 229 231 234 236 235 236 235 230 218 194 168 152 175 174 155 149 152 158 151 130 125 93
353 346 346 347 347 332 318 237 224 220 221 220 222 221 226 231 234 235 233 232 227 228 230 232 235 234 231 230 224 195 146 139 133 125 117 111 106 97 98 107 115 121 123
342 344 349 354 351 348 339 318 245 218 216 217 216 214 220 226 231 233 234 232 230 218 213 207 207 203 188 187 190 172 159 147 133 124 111 100 98 97 95 91 87 114 118
350 351 355 7 10 1 359 353 346 250 205 198 189 178 187 201 210 223 220 224 223 203 154 135 134 144 149 149 134 125 124 122 114 107 104 97 100 98 97 98 95 79 66
360 5 3 9 27 26 20 11 11 4 20 113 130 107 79 77 80 94 124 150 147 128 117 113 107 101 97 101 112 112 111 105 103 102 95 109 110 103 90 86 78 86 88
11 14 17 17 26 41 47 38 26 17 12 38 78 88 90 78 79 80 92 93 98 102 98 91 103 106 107 107 99 99 109 115 110 107 109 109 106 102 87 73 58 27 12
27 29 30 31 33 46 54 57 60 46 48 51 64 82 82 96 96 106 104 95 107 103 102 96 90 87 98 97 93 94 96 100 99 103 102 94 91 92 81 63 46 28 19
41 43 42 45 42 49 57 63 64 72 73 71 77 72 85 94 99 103 102 104 101 104 99 99 96 94 91 92 90 91 95 93 90 94 91 90 80 68 59 47 41 36 27
48 52 51 53 53 51 53 59 71 65 71 67 77 81 72 82 79 93 102 103 104 100 84 83 85 88 87 90 92 90 85 94 92 86 85 78 78 74 64 49 36 34 23
53 58 59 57 56 58 60 59 64 66 65 59 60 71 84 77 86 86 100 100 80 77 81 86 82 83 87 88 89 93 96 87 87 92 89 81 68 57 50 43 33 24 15
50 54 56 61 61 60 56 59 53 62 64 57 57 66 68 78 73 71 73 78 82 80 80 80 86 87 88 92 95 94 91 87 85 79 69 63 54 47 43 30 21 15 8
54 59 63 62 62 59 56 59 56 57 58 56 51 50 63 74 62 59 63 67 73 79 84 85 88 92 94 96 94 92 87 81 76 72 67 60 53 47 36 25 18 14 7
64 61 64 63 60 62 62 62 64 66 65 63 62 66 75 72 68 66 67 70 72 75 85 92 90 86 84 82 80 81 83 81 75 73 64 48 40 38 27 20 11 6 2
64 63 62 61 65 66 68 71 69 69 68 70 69 71 76 75 73 72 72 72 75 78 82 85 84 81 79 81 83 87 90 86 72 49 29 32 35 28 14 4 6 4 357
73 74 69 65 63 68 70 72 75 76 77 77 77 78 79 81 82 83 82 78 72 72 74 70 72 72 78 86 81 79 72 54 24 348 330 319 323 348 359 358 355 351 347
76 76 72 72 77 77 76 75 78 81 80 82 82 84 85 83 81 76 76 75 70 69 66 60 49 54 47 40 40 6 2 349 331 318 308 275 264 283 336 344 350 348 352
77 76 77 75 75 77 77 78 79 79 77 76 81 83 79 79 77 71 63 63 77 70 66 52 36 24 25 34 26 13 348 335 329 326 295 254 255 303 327 340 338 334 339
73 75 75 75 75 75 77 77 74 73 71 71 75 74 73 76 84 62 47 81 74 77 57 37 22 30 9 11 356 340 332 336 339 335 321 230 245 280 309 316 325 331 333